Torna al catalogo

FENGYUN 1C DEB

LostPO
NORAD 31835·DEBRIS·🇨🇳 China

Lanciato May 10, 1999 da Taiyuan Satellite Launch Center

Loading…

Prossimi Passaggi (prossime 24 ore)

TLE

ObsoletoSource: Space-Track

Epoca: May 15, 2013, 16:13 UTC

1 31835U 99025CHZ 13135.67582413  .00005094  00000-0  33563-2 0  9994
2 31835  98.3320 296.5729 0181051 214.5570 206.7154 13.94489834304811

Traccia FENGYUN 1C DEB in tempo reale con AllMySat

Download on the App Store